Regional Weather Roundup
Issued by NWS

Home | Current Version | Previous Version | Graphics & Text | Print | Product List | Glossary Off
Versions: 1 2 3 4 5 6 7 8 9 10 11 12 13 14 15 16 17 18 19 20 21 22 23 24 25 26 27 28 29 30 31 32 33 34 35 36 37 38 39 40 41 42 43 44 45 46 47 48 49 50

000
ASUS43 KMKX 260459
RWRWI

WISCONSIN REGIONAL WEATHER ROUNDUP
NATIONAL WEATHER SERVICE MILWAUKEE/SULLIVAN WI
1200 AM CDT FRI MAY 26 2017

NOTE: "FAIR" INDICATES FEW OR NO CLOUDS BELOW 12,000 FEET WITH NO
SIGNIFICANT WEATHER AND/OR OBSTRUCTIONS TO VISIBILITY.

WIZ001-002-006>008-014>016-023>028-260600-
NORTHWEST WISCONSIN

CITY           SKY/WX    TMP DP  RH WIND       PRES   REMARKS
SUPERIOR ARPT  NOT AVBL
ASHLAND        CLOUDY    45  43  93 SW3       29.73S
HAYWARD        MOCLDY    58  49  72 CALM      29.73R
SIREN          CLOUDY    58  53  84 CALM      29.72R
CUMBERLAND     CLOUDY    55  52  88 CALM      29.72S
RICE LAKE      CLOUDY    58  55  88 CALM      29.74R
CHETEK         CLOUDY    57  55  94 CALM      29.72S
LADYSMITH      PTCLDY    58  55  88 CALM      29.75R
EAU CLAIRE     NOT AVBL
MENOMONIE      PTCLDY    59  55  85 CALM      29.72R
NEW RICHMOND   LGT RAIN  59  53  80 SW3       29.72R
OSCEOLA        CLOUDY    59  55  87 CALM      29.74R
$$

WIZ003>005-009-010-017-018-260600-
NORTH CENTRAL WISCONSIN

CITY           SKY/WX    TMP DP  RH WIND       PRES   REMARKS
MANITOWISH WTR CLOUDY    60  48  65 E6        29.75S
ARBOR VITAE    MOCLDY    62  47  58 SE9       29.76S
WOODRUFF       MOCLDY    62  47  58 SE9       29.76S
RHINELANDER    CLOUDY    59  50  72 E9        29.77S
EAGLE RIVER    PTCLDY    56  44  62 E9        29.78S HAZE
LAND O LAKES   PTCLDY    56  45  67 SE8       29.80R
PHILLIPS       CLOUDY    55  52  90 CALM      29.73S
TOMAHAWK       CLOUDY    53  50  89 CALM      29.76S
MEDFORD        CLOUDY    57  52  84 S3        29.75R
MERRILL        CLOUDY    60  53  77 SE5       29.76R
$$

WIZ029-030-035-036-043>047-260600-
CENTRAL WISCONSIN

CITY           SKY/WX    TMP DP  RH WIND       PRES   REMARKS
WAUSAU         CLOUDY    58  52  80 E5        29.74S
MOSINEE        CLOUDY    57  52  82 E5        29.77S
MARSHFIELD     CLOUDY    57  51  80 SE3       29.74S
STEVENS POINT  CLEAR     55  50  82 CALM      29.76S
WAUPACA        CLOUDY    58  54  86 CALM      29.77R
WAUTOMA        CLEAR     54  52  93 CALM      29.77S
WISC RAPIDS    CLOUDY    59  52  77 S3        29.76S
CAMP DOUGLAS   NOT AVBL
$$

WIZ011>013-019>022-031-037>040-048>050-260600-
NORTHEAST WISCONSIN

CITY           SKY/WX    TMP DP  RH WIND       PRES   REMARKS
ANTIGO         CLOUDY    56  51  82 SE12      29.79R
SHAWANO        CLOUDY    58  52  83 E5        29.79R
OCONTO         CLEAR     49  48  98 CALM      29.78S
STURGEON BAY   CLEAR     51  50  96 NW5       29.79R
GREEN BAY      CLEAR     54  52  93 E6        29.78S
MANITOWOC      NOT AVBL
APPLETON       CLOUDY    55  48  76 E7        29.76S
CLINTONVILLE   CLOUDY    57  50  77 E5        29.78R
OSHKOSH        CLEAR     55  52  89 E5        29.77R
$$

WIZ032>034-041-042-053>061-260600-
SOUTHWEST WISCONSIN

CITY           SKY/WX    TMP DP  RH WIND       PRES   REMARKS
LA CROSSE      CLOUDY    62  57  83 S3        29.73R
SPARTA         CLOUDY    52  51  97 CALM      29.74S
VIROQUA        CLOUDY    61  52  72 N5        29.74S
BOSCOBEL       CLOUDY    58  55  90 CALM      29.75R
PRAIRIE DU CHI CLOUDY    61  52  71 CALM      29.74R
PLATTEVILLE    CLOUDY    60  57  89 SE5       29.75S
$$

WIZ056-057-062-063-064-067-068-260600-
SOUTH CENTRAL WISCONSIN

CITY           SKY/WX    TMP DP  RH WIND       PRES   REMARKS
REEDSBURG      CLEAR     56  56 100 CALM      29.75R
BARABOO/DELLS  CLEAR     58  50  76 SE3       29.75S
LONE ROCK      NOT AVBL
MINERAL POINT  LGT RAIN  61  55  82 CALM      29.76R
MADISON        CLEAR     53  49  86 CALM      29.75F
MIDDLETON      CLEAR     55  55  99 CALM      29.76F
WATERTOWN      CLEAR     53  53 100 CALM      29.78R
MONROE         PTCLDY    61  52  72 S6        29.76F
JANESVILLE     CLEAR     57  55  94 E5        29.76S
$$

WIZ051-052-058>065-066-070>072-260600-
SOUTHEAST WISCONSIN

CITY           SKY/WX    TMP DP  RH WIND       PRES   REMARKS
MILWAUKEE      CLEAR     54  51  90 CALM      29.78R
WAUKESHA       CLEAR     48  48 100 CALM      29.79R
MILWAUKEE/TIMM   N/A     52  46  82 CALM      29.79R
RACINE         CLEAR     52  49  89 CALM      29.79R
KENOSHA        CLEAR     50  49  96 W3        29.78R
FOND DU LAC    CLEAR     53  50  89 CALM      29.78R
SHEBOYGAN      CLEAR     49  49 100 N3        29.78R
WEST BEND      CLEAR     50  50 100 CALM      29.78R
JUNEAU         CLEAR     56  53  88 CALM      29.79R
$$

LSZ147-162-260600-
LAKE SUPERIOR

STATION/POSITION TIME  TEMP    WIND        PRES    WAVE
                       AIR SEA DIR/SP/G            HT/PER
                 (UTC) (F)     (DEG/KT/KT) (MB)    (FT/S)
$$

LMZ867-665-643>646-260600-
LAKE MICHIGAN

STATION/POSITION TIME  TEMP    WIND        PRES    WAVE
                       AIR SEA DIR/SP/G            HT/PER
                 (UTC) (F)     (DEG/KT/KT) (MB)    (FT/S)
$$

TC  - TEMPERATURE IN CELSIUS
VSB - VISIBILITY IN STATUTE MILES
WCI - WIND CHILL INDEX
HX  - HEAT INDEX





USA.gov is the U.S. government's official web portal to all federal, state and local government web resources and services.